Regional Weather Roundup
Issued by NWS

Home | Current Version | Previous Version | Graphics & Text | Print | Product List | Glossary On
Versions: 1 2 3 4 5 6 7 8 9 10 11 12 13 14 15 16 17 18 19 20 21 22 23 24 25 26 27 28 29 30 31 32 33 34 35 36 37 38 39 40 41 42 43 44 45 46 47 48 49 50
000
ASUS43 KDMX 282006
RWRIA

WEATHER ROUNDUP FOR IOWA
NATIONAL WEATHER SERVICE DES MOINES IA
300 PM CDT TUE MAR 28 2017

NOTE: "FAIR" INDICATES FEW OR NO CLOUDS BELOW 12,000 FEET WITH NO
SIGNIFICANT WEATHER AND/OR OBSTRUCTIONS TO VISIBILITY.

* - THESE STATIONS ARE NOT NWS STATIONS...THUS NOT UNDER NWS
QUALITY CONTROL.  THEY ALSO DO NOT REPORT WEATHER SUCH
AS PRECIPITATION OR FOG.

IAZ001>003-012>014-020>022-031>034-043>046-282100-
   NORTHWEST IOWA

CITY           SKY/WX    TMP DP  RH WIND       PRES   REMARKS
CARROLL *      CLOUDY    52  45  76 E10       30.09F
CHEROKEE *     SUNNY     59  35  41 E13G18    30.09F
DENISON *      CLOUDY    52  43  71 E10       30.10F
LE MARS *      MOSUNNY   61  36  39 NE15      30.08F
ORANGE CITY *  SUNNY     59  37  44 E10G16    30.08F
SHELDON *      MOSUNNY   59  37  44 E13       30.07F
SIOUX CITY     MOSUNNY   61  39  44 E17       30.06F
SPENCER        SUNNY     60  37  42 E18G24    30.10F
STORM LAKE *   SUNNY     57  37  47 NE15G21   30.09F
$$

IAZ055>058-069>071-079>083-090>094-282100-
   SOUTHWEST IOWA

CITY           SKY/WX    TMP DP  RH WIND       PRES   REMARKS
ATLANTIC *     CLOUDY    50  43  76 E8        30.08F
AUDUBON *      CLOUDY    52  43  71 E9        30.09F
CLARINDA *     CLOUDY    52  43  71 E9        30.09F
COUNCIL BLFS * CLOUDY    48  45  87 E9        30.08F
CRESTON *      CLOUDY    50  43  76 E10       30.09S
HARLAN  *      CLOUDY    50  45  81 E10       30.11F
LAMONI         CLOUDY    55  45  68 E7        30.06F
RED OAK *      CLOUDY    50  43  76 E12       30.08F
SHENANDOAH *   CLOUDY    52  43  71 E10       30.08S
$$

IAZ047>049-059>061-072>074-084-282100-
   CENTRAL IOWA

CITY           SKY/WX    TMP DP  RH WIND       PRES   REMARKS
AMES           CLOUDY    51  44  77 E8        30.11F
ANKENY *       CLOUDY    52  43  71 E6        30.11F
BOONE *        CLOUDY    50  45  81 E9        30.10F
CHARITON *     CLOUDY    52  45  76 E8        30.09F
DES MOINES     CLOUDY    51  42  71 NE8       30.10F
GRINNELL*      CLOUDY    50  42  71 E3        30.13F
MARSHALLTOWN   CLOUDY    51  43  74 E10       30.11F
NEWTON *       CLOUDY    50  41  71 E6        30.10F
PELLA *        PTSUNNY   51  44  76 E3        30.11F
PERRY *        CLOUDY    50  44  77 E9        30.10F
$$

IAZ004>006-015-016-023>025-035-036-282100-
   NORTH CENTRAL IOWA

CITY           SKY/WX    TMP DP  RH WIND       PRES   REMARKS
ALGONA *       MOSUNNY   55  41  58 E12       30.11F
CLARION *      MOSUNNY   55  43  62 E8G15     30.11F
ESTHERVILLE    SUNNY     57  39  51 NE13      30.11F
FORT DODGE *   PTSUNNY   54  43  66 E13       30.12F
MASON CITY     PTSUNNY   59  39  47 NE10      30.13F
FOREST CITY *    N/A     57  37  47 E7        30.12F
WEBSTER CITY * CLOUDY    54  41  62 SE10      30.09F
IOWA FALLS *   PTSUNNY   54  42  64 E3        30.12F
$$

IAZ007>011-017>019-026>030-037>042-050>054-066-282100-
   NORTHEAST IOWA

CITY           SKY/WX    TMP DP  RH WIND       PRES   REMARKS
CEDAR RAPIDS   CLOUDY    49  44  83 E8        30.12F
CHARLES CITY * MOSUNNY   57  39  51 E10       30.13F
CLINTON *      CLOUDY    49  42  77 NE5       30.15S
DECORAH *      SUNNY     55  37  50 VRB6      30.12F
DUBUQUE        CLOUDY    49  38  65 NE8       30.15R
MONTICELLO *   PTSUNNY   54  41  62 E8        30.13F
OELWEIN *      PTSUNNY   55  41  58 E7        30.13F
WATERLOO       PTSUNNY   56  40  55 VRB6      30.12F
$$

IAZ064-065-067-068-078-282100-
   EAST CENTRAL IOWA

CITY           SKY/WX    TMP DP  RH WIND       PRES   REMARKS
DAVENPORT      CLOUDY    50  42  74 NE8       30.14S
IOWA CITY      CLOUDY    51  45  79 NE7       30.14F
MUSCATINE *    CLOUDY    54  46  76 SE6       30.13F
QUAD CITIES    CLOUDY    52  41  66 NE6       30.12F
$$

IAZ062-063-075>077-085>089-095>099-282100-
   SOUTHEAST IOWA

CITY           SKY/WX    TMP DP  RH WIND       PRES   REMARKS
BURLINGTON     CLOUDY    51  47  86 E7        30.11F
FAIRFIELD *    CLOUDY    52  43  71 NE8       30.11F
FORT MADISON * CLOUDY    54  54 100 NE5       30.12F
KEOKUK *       CLOUDY    54  46  76 N8        30.10F
OSKALOOSA *    CLOUDY    52  44  75 E8        30.11F
CENTERVILLE *  CLOUDY    52  46  82 E10       30.10F
OTTUMWA        CLOUDY    53  44  71 E8        30.11F
WASHINGTON *   CLOUDY    52  46  82 NE5       30.13F
$$

ABBREVIATIONS USED IN REMARKS
   TC - TEMPERATURES IN CELSIUS
  WCI - WIND CHILL INDEX
   HX - HEAT INDEX
  VSB - VISIBILITY
$$




USA.gov is the U.S. government's official web portal to all federal, state and local government web resources and services.